User: anonymous   Login
Location: Oshawa
(43.9000°N, 78.8670°W)
Time: 22:56:56
(UTC-05:00)
Language:

Cosmos 1408 Rocket - Orbit

View from above orbital plane
View from above orbital plane
View from above satellite
View from above satellite

Ground track
Ground track

The orbit data is extracted from the following two-line orbital elements,

1 13553U 82092B   17050.23888339  .00000099  00000-0  88498-5 0  9995
2 13553  82.5717 343.9700 0022979  75.6546  36.8020 14.84105656859547
Epoch (UTC): 19 February 2017 05:43:59
Eccentricity: 0.0022979
inclination: 82.5717°
perigee height: 600 km
apogee height: 632 km
right ascension of ascending node: 343.9700°
argument of perigee: 75.6546°
revolutions per day: 14.84105656
mean anomaly at epoch: 36.8020°
orbit number at epoch: 85954

The dashed part of the orbit path shows where the satellite is in the earth's shadow,  

DLR